Meteo orario Alkadar

Oggi, 26 Ottobre, Lunedi

Tempo Temperatura Precipitazioni Vento Pressione Umidità
00:00 +16°C° 0 mm 1 m/s 707 mm Hg 50%
01:00 +16°C° 0 mm 1 m/s 707 mm Hg 51%
02:00 +15°C° 0 mm 1 m/s 707 mm Hg 52%
03:00 +15°C° 0 mm 1 m/s 707 mm Hg 53%
04:00 +15°C° 0 mm 1 m/s 708 mm Hg 53%
05:00 +15°C° 0 mm 1 m/s 708 mm Hg 53%
06:00 +14°C° 0 mm 1 m/s 708 mm Hg 53%
07:00 +16°C° 0 mm 1 m/s 708 mm Hg 48%
08:00 +18°C° 0 mm 1 m/s 709 mm Hg 44%
09:00 +20°C° 0 mm 1 m/s 709 mm Hg 40%
10:00 +19°C° 0 mm 2 m/s 709 mm Hg 41%
11:00 +20°C° 0 mm 2 m/s 709 mm Hg 41%
12:00 +20°C° 0 mm 2 m/s 709 mm Hg 41%
13:00 +20°C° 0 mm 2 m/s 709 mm Hg 43%
14:00 +19°C° 0 mm 2 m/s 709 mm Hg 45%
15:00 +19°C° 0 mm 2 m/s 709 mm Hg 47%
16:00 +18°C° 0 mm 1 m/s 708 mm Hg 55%
17:00 +15°C° 0 mm 1 m/s 708 mm Hg 63%
18:00 +13°C° 0 mm 0 m/s 708 mm Hg 70%
19:00 +12°C° 0 mm 0 m/s 708 mm Hg 70%
20:00 +12°C° 0 mm 0 m/s 708 mm Hg 69%
21:00 +12°C° 0 mm 0 m/s 708 mm Hg 69%
22:00 +11°C° 0 mm 0 m/s 708 mm Hg 69%
23:00 +11°C° 0 mm 0 m/s 708 mm Hg 70%

Domani, 27 Ottobre, Martedi

Tempo Temperatura Precipitazioni Vento Pressione Umidità
00:00 +11°C° 0 mm 0 m/s 708 mm Hg 71%
01:00 +11°C° 0 mm 0 m/s 708 mm Hg 72%
02:00 +10°C° 0 mm 0 m/s 708 mm Hg 73%
03:00 +11°C° 0 mm 1 m/s 708 mm Hg 74%
04:00 +11°C° 0 mm 1 m/s 708 mm Hg 73%
05:00 +11°C° 0 mm 1 m/s 708 mm Hg 73%
06:00 +10°C° 0 mm 1 m/s 708 mm Hg 73%
07:00 +12°C° 0 mm 1 m/s 708 mm Hg 71%
08:00 +13°C° 0 mm 1 m/s 709 mm Hg 69%
09:00 +15°C° 0 mm 1 m/s 709 mm Hg 67%
10:00 +15°C° 0 mm 2 m/s 709 mm Hg 70%
11:00 +15°C° 0 mm 2 m/s 710 mm Hg 73%
12:00 +14°C° 0 mm 3 m/s 710 mm Hg 76%
13:00 +15°C° 0 mm 2 m/s 710 mm Hg 79%
14:00 +14°C° 0 mm 2 m/s 709 mm Hg 82%
15:00 +14°C° 0 mm 2 m/s 709 mm Hg 85%
16:00 +13°C° 0 mm 2 m/s 710 mm Hg 86%
17:00 +13°C° 0 mm 1 m/s 710 mm Hg 87%
18:00 +12°C° 0 mm 1 m/s 710 mm Hg 89%
19:00 +12°C° 0 mm 1 m/s 710 mm Hg 88%
20:00 +12°C° 0 mm 1 m/s 711 mm Hg 88%
21:00 +12°C° 0 mm 1 m/s 711 mm Hg 88%
22:00 +12°C° 0 mm 1 m/s 711 mm Hg 88%
23:00 +11°C° 0 mm 1 m/s 711 mm Hg 88%

Dopodomani, 28 Ottobre, Mercoledi

Tempo Temperatura Precipitazioni Vento Pressione Umidità
00:00 +11°C° 0 mm 1 m/s 711 mm Hg 88%
01:00 +11°C° 0 mm 1 m/s 711 mm Hg 87%
02:00 +11°C° 0 mm 1 m/s 711 mm Hg 87%
03:00 +11°C° 0 mm 1 m/s 711 mm Hg 86%
04:00 +11°C° 0 mm 1 m/s 711 mm Hg 85%
05:00 +11°C° 0 mm 1 m/s 712 mm Hg 85%
06:00 +11°C° 0 mm 1 m/s 712 mm Hg 84%
07:00 +12°C° 0 mm 1 m/s 712 mm Hg 80%
08:00 +12°C° 0 mm 2 m/s 712 mm Hg 77%
09:00 +13°C° 0 mm 2 m/s 713 mm Hg 73%
10:00 +13°C° 0 mm 3 m/s 713 mm Hg 71%
11:00 +13°C° 0 mm 3 m/s 713 mm Hg 68%
12:00 +14°C° 0 mm 4 m/s 713 mm Hg 66%
13:00 +14°C° 0 mm 3 m/s 712 mm Hg 67%
14:00 +13°C° 0 mm 3 m/s 712 mm Hg 67%
15:00 +13°C° 0 mm 3 m/s 712 mm Hg 68%
16:00 +12°C° 0 mm 3 m/s 712 mm Hg 73%
17:00 +10°C° 0 mm 2 m/s 712 mm Hg 79%
18:00 +10°C° 0 mm 1 m/s 712 mm Hg 85%
19:00 +10°C° 0 mm 1 m/s 712 mm Hg 85%
20:00 +10°C° 0 mm 1 m/s 712 mm Hg 85%
21:00 +9°C° 0 mm 1 m/s 712 mm Hg 85%
22:00 +9°C° 0 mm 1 m/s 712 mm Hg 84%
23:00 +9°C° 0 mm 1 m/s 712 mm Hg 83%

29 Ottobre, Giovedi

Tempo Temperatura Precipitazioni Vento Pressione Umidità
00:00 +9°C° 0 mm 1 m/s 712 mm Hg 82%
01:00 +9°C° 0 mm 1 m/s 711 mm Hg 81%
02:00 +9°C° 0 mm 1 m/s 711 mm Hg 79%
03:00 +9°C° 0 mm 1 m/s 711 mm Hg 78%
04:00 +9°C° 0 mm 1 m/s 711 mm Hg 77%
05:00 +9°C° 0 mm 1 m/s 711 mm Hg 76%
06:00 +9°C° 0 mm 1 m/s 711 mm Hg 76%
07:00 +11°C° 0 mm 1 m/s 711 mm Hg 72%
08:00 +12°C° 0 mm 1 m/s 711 mm Hg 67%
09:00 +14°C° 0 mm 1 m/s 712 mm Hg 63%
10:00 +15°C° 0 mm 2 m/s 712 mm Hg 60%
11:00 +16°C° 0 mm 2 m/s 711 mm Hg 57%
12:00 +17°C° 0 mm 2 m/s 711 mm Hg 54%
13:00 +17°C° 0 mm 2 m/s 711 mm Hg 55%
14:00 +18°C° 0 mm 2 m/s 711 mm Hg 56%
15:00 +18°C° 0 mm 2 m/s 711 mm Hg 57%
16:00 +16°C° 0 mm 2 m/s 710 mm Hg 64%
17:00 +15°C° 0 mm 2 m/s 710 mm Hg 72%
18:00 +13°C° 0 mm 1 m/s 710 mm Hg 80%
19:00 +13°C° 0 mm 1 m/s 710 mm Hg 78%
20:00 +13°C° 0 mm 1 m/s 710 mm Hg 76%
21:00 +13°C° 0 mm 1 m/s 710 mm Hg 74%
22:00 +13°C° 0 mm 1 m/s 710 mm Hg 72%
23:00 +13°C° 0 mm 1 m/s 710 mm Hg 71%

30 Ottobre, Venerdi

Tempo Temperatura Precipitazioni Vento Pressione Umidità
00:00 +12°C° 0 mm 1 m/s 710 mm Hg 70%
01:00 +12°C° 0 mm 1 m/s 709 mm Hg 69%
02:00 +12°C° 0 mm 1 m/s 709 mm Hg 67%
03:00 +12°C° 0 mm 1 m/s 709 mm Hg 66%
04:00 +12°C° 0 mm 1 m/s 709 mm Hg 66%
05:00 +12°C° 0 mm 1 m/s 709 mm Hg 65%
06:00 +12°C° 0 mm 1 m/s 709 mm Hg 64%
07:00 +14°C° 0 mm 1 m/s 709 mm Hg 59%
08:00 +16°C° 0 mm 1 m/s 709 mm Hg 55%
09:00 +20°C° 0 mm 1 m/s 709 mm Hg 50%
10:00 +20°C° 0 mm 1 m/s 709 mm Hg 48%
11:00 +20°C° 0 mm 2 m/s 709 mm Hg 47%
12:00 +21°C° 0 mm 2 m/s 709 mm Hg 45%
13:00 +21°C° 0 mm 2 m/s 709 mm Hg 48%
14:00 +20°C° 0 mm 2 m/s 708 mm Hg 52%
15:00 +20°C° 0 mm 2 m/s 708 mm Hg 55%
16:00 +18°C° 0 mm 2 m/s 708 mm Hg 64%
17:00 +18°C° 0 mm 1 m/s 708 mm Hg 72%
18:00 +15°C° 0 mm 1 m/s 708 mm Hg 80%
19:00 +15°C° 0 mm 1 m/s 708 mm Hg 79%
20:00 +15°C° 0 mm 1 m/s 708 mm Hg 77%
21:00 +15°C° 0 mm 1 m/s 708 mm Hg 76%
22:00 +15°C° 0 mm 1 m/s 708 mm Hg 76%
23:00 +15°C° 0 mm 2 m/s 708 mm Hg 76%

31 Ottobre, Sabato

Tempo Temperatura Precipitazioni Vento Pressione Umidità
00:00 +14°C° 0 mm 2 m/s 707 mm Hg 76%
01:00 +14°C° 0 mm 2 m/s 707 mm Hg 76%
02:00 +14°C° 0 mm 1 m/s 707 mm Hg 76%
03:00 +14°C° 0 mm 1 m/s 707 mm Hg 77%
04:00 +13°C° 0 mm 1 m/s 707 mm Hg 76%
05:00 +13°C° 0 mm 1 m/s 707 mm Hg 75%
06:00 +13°C° 0 mm 1 m/s 708 mm Hg 75%
07:00 +14°C° 0 mm 1 m/s 708 mm Hg 70%
08:00 +16°C° 0 mm 2 m/s 708 mm Hg 65%
09:00 +17°C° 0 mm 2 m/s 709 mm Hg 61%
Mostrare altro

Abbiamo bisogno del tuo consenso

Meteoprog e i nostri fornitori di servizi possono memorizzare e accedere a dati personali come cookie, identificatori di dispositivi o altre tecnologie simili sul tuo dispositivo e possono elaborare tali dati per personalizzare i contenuti e gli annunci, nonché fornire funzionalità dei social media e analizzarne il traffico.

  • Archiviare e/o accedere alle informazioni sul tuo dispositivo

    Cookie, identificatori di dispositivi o altre informazioni possono essere memorizzati o resi accessibili sul tuo dispositivo per le finalità sopra indicate.

  • Annunci e contenuti personalizzati, misurazione di annunci e contenuti, approfondimenti sul pubblico e sviluppo di prodotti

    Gli annunci e i contenuti possono essere personalizzati in base a un profilo. È possibile aggiungere più dati per personalizzare meglio annunci e contenuti. È possibile misurare il rendimento degli annunci e dei contenuti. È possibile ricavare informazioni sul pubblico che ha visto gli annunci e i contenuti. Tali dati possono essere utilizzati per sviluppare o migliorare l'esperienza, i sistemi e il software dell'utente.

Cliccando su “Accetto”, acconsenti all'uso di cookie, identificatori di dispositivo, web beacon o altre tecnologie simili. Puoi modificare le impostazioni nel browser del tuo dispositivo.

Per determinati scopi, è possibile fare affidamento su interessi legali, piuttosto che sul consenso. Puoi approfondire questo argomento consultando la nostra Informativa sulla privacy e sui cookie.